Hourly Weather Lukko

Today, 7 May, Friday

Time Temperature Precipitation Wind Pressure Humidity
00:00 +3°C° 0.2 mm 5 mps 743 mmHg 95%
01:00 +3°C° 0.2 mm 5 mps 743 mmHg 96%
02:00 +2°C° 0.2 mm 5 mps 743 mmHg 97%
03:00 +2°C° 0.3 mm 5 mps 743 mmHg 97%
04:00 +2°C° 0.3 mm 5 mps 743 mmHg 97%
05:00 +2°C° 0.3 mm 5 mps 744 mmHg 97%
06:00 +2°C° 0.2 mm 5 mps 744 mmHg 96%
07:00 +2°C° 0.2 mm 5 mps 744 mmHg 96%
08:00 +3°C° 0.2 mm 4 mps 745 mmHg 96%
09:00 +4°C° 0.1 mm 4 mps 745 mmHg 95%
10:00 +4°C° 0.1 mm 4 mps 746 mmHg 94%
11:00 +4°C° 0.1 mm 4 mps 746 mmHg 93%
12:00 +5°C° 0.1 mm 4 mps 747 mmHg 91%
13:00 +5°C° 0.1 mm 4 mps 747 mmHg 89%
14:00 +6°C° 0.1 mm 4 mps 747 mmHg 87%
15:00 +6°C° 0.2 mm 4 mps 748 mmHg 85%
16:00 +6°C° 0.2 mm 4 mps 748 mmHg 82%
17:00 +8°C° 0.2 mm 3 mps 748 mmHg 79%
18:00 +7°C° 0.1 mm 3 mps 748 mmHg 83%
19:00 +6°C° 0.1 mm 2 mps 748 mmHg 87%
20:00 +6°C° 0.1 mm 1 mps 748 mmHg 90%
21:00 +5°C° 0 mm 1 mps 748 mmHg 92%
22:00 +5°C° 0 mm 1 mps 748 mmHg 93%
23:00 +4°C° 0 mm 1 mps 748 mmHg 94%

Tomorrow, 8 May, Saturday

Time Temperature Precipitation Wind Pressure Humidity
00:00 +4°C° 0 mm 1 mps 748 mmHg 94%
01:00 +4°C° 0 mm 1 mps 748 mmHg 94%
02:00 +3°C° 0 mm 0 mps 747 mmHg 95%
03:00 +4°C° 0.1 mm 1 mps 747 mmHg 95%
04:00 +4°C° 0.1 mm 1 mps 747 mmHg 95%
05:00 +5°C° 0.1 mm 1 mps 747 mmHg 95%
06:00 +4°C° 0.6 mm 2 mps 748 mmHg 95%
07:00 +4°C° 0.6 mm 2 mps 748 mmHg 95%
08:00 +4°C° 0.6 mm 2 mps 748 mmHg 95%
09:00 +4°C° 0.1 mm 2 mps 748 mmHg 93%
10:00 +4°C° 0.1 mm 2 mps 749 mmHg 92%
11:00 +4°C° 0.1 mm 2 mps 749 mmHg 91%
12:00 +3°C° 0.1 mm 3 mps 749 mmHg 89%
13:00 +4°C° 0.1 mm 3 mps 750 mmHg 87%
14:00 +4°C° 0.1 mm 3 mps 750 mmHg 85%
15:00 +4°C° 0.1 mm 3 mps 750 mmHg 81%
16:00 +5°C° 0.1 mm 3 mps 751 mmHg 76%
17:00 +5°C° 0.1 mm 4 mps 751 mmHg 72%
18:00 +4°C° 0 mm 3 mps 752 mmHg 74%
19:00 +3°C° 0 mm 3 mps 752 mmHg 76%
20:00 +2°C° 0 mm 3 mps 752 mmHg 78%
21:00 +2°C° 0 mm 3 mps 753 mmHg 80%
22:00 +1°C° 0 mm 3 mps 753 mmHg 83%
23:00 +1°C° 0 mm 3 mps 754 mmHg 85%

Day after tomorrow, 9 May, Sunday

Time Temperature Precipitation Wind Pressure Humidity
00:00 0°C° 0 mm 3 mps 754 mmHg 86%
01:00 0°C° 0 mm 3 mps 755 mmHg 88%
02:00 0°C° 0 mm 3 mps 755 mmHg 90%
03:00 0°C° 0 mm 3 mps 755 mmHg 90%
04:00 0°C° 0 mm 3 mps 756 mmHg 91%
05:00 0°C° 0 mm 3 mps 756 mmHg 92%
06:00 +2°C° 0 mm 3 mps 756 mmHg 82%
07:00 +4°C° 0 mm 3 mps 757 mmHg 72%
08:00 +6°C° 0 mm 4 mps 757 mmHg 61%
09:00 +7°C° 0 mm 4 mps 757 mmHg 55%
10:00 +8°C° 0 mm 5 mps 757 mmHg 49%
11:00 +9°C° 0 mm 5 mps 758 mmHg 43%
12:00 +9°C° 0 mm 5 mps 758 mmHg 43%
13:00 +10°C° 0 mm 5 mps 758 mmHg 44%
14:00 +12°C° 0 mm 5 mps 758 mmHg 45%
15:00 +12°C° 0 mm 5 mps 758 mmHg 46%
16:00 +12°C° 0 mm 4 mps 758 mmHg 47%
17:00 +12°C° 0 mm 4 mps 758 mmHg 48%
18:00 +10°C° 0 mm 3 mps 758 mmHg 53%
19:00 +9°C° 0 mm 3 mps 758 mmHg 59%
20:00 +8°C° 0 mm 2 mps 759 mmHg 65%
21:00 +8°C° 0.1 mm 3 mps 758 mmHg 70%
22:00 +6°C° 0.1 mm 4 mps 758 mmHg 74%
23:00 +6°C° 0.1 mm 4 mps 758 mmHg 78%

10 May, Monday

Time Temperature Precipitation Wind Pressure Humidity
00:00 +6°C° 0.3 mm 5 mps 758 mmHg 81%
01:00 +6°C° 0.3 mm 5 mps 758 mmHg 84%
02:00 +7°C° 0.3 mm 5 mps 758 mmHg 87%
03:00 +7°C° 0 mm 5 mps 758 mmHg 88%
04:00 +7°C° 0 mm 5 mps 758 mmHg 89%
05:00 +7°C° 0 mm 4 mps 759 mmHg 89%
06:00 +9°C° 0 mm 5 mps 759 mmHg 84%
07:00 +10°C° 0 mm 5 mps 759 mmHg 79%
08:00 +13°C° 0 mm 5 mps 760 mmHg 74%
09:00 +14°C° 0 mm 5 mps 760 mmHg 68%
10:00 +16°C° 0 mm 5 mps 760 mmHg 61%
11:00 +17°C° 0 mm 6 mps 760 mmHg 55%
12:00 +19°C° 0 mm 6 mps 760 mmHg 52%
13:00 +20°C° 0 mm 5 mps 760 mmHg 49%
14:00 +21°C° 0 mm 5 mps 760 mmHg 46%
15:00 +21°C° 0 mm 5 mps 760 mmHg 47%
16:00 +21°C° 0 mm 5 mps 760 mmHg 49%
17:00 +21°C° 0 mm 5 mps 760 mmHg 50%
18:00 +19°C° 0 mm 5 mps 760 mmHg 54%
19:00 +17°C° 0 mm 5 mps 761 mmHg 59%
20:00 +15°C° 0 mm 5 mps 761 mmHg 63%
21:00 +15°C° 0 mm 5 mps 761 mmHg 66%
22:00 +14°C° 0 mm 5 mps 761 mmHg 70%
23:00 +13°C° 0 mm 5 mps 762 mmHg 73%

11 May, Tuesday

Time Temperature Precipitation Wind Pressure Humidity
00:00 +13°C° 0 mm 5 mps 762 mmHg 74%
01:00 +12°C° 0 mm 5 mps 762 mmHg 75%
02:00 +10°C° 0 mm 5 mps 762 mmHg 76%
03:00 +10°C° 0 mm 5 mps 762 mmHg 76%
04:00 +10°C° 0 mm 5 mps 761 mmHg 77%
05:00 +10°C° 0 mm 5 mps 761 mmHg 77%
06:00 +12°C° 0 mm 5 mps 761 mmHg 71%
07:00 +13°C° 0 mm 5 mps 762 mmHg 66%
08:00 +15°C° 0 mm 6 mps 762 mmHg 61%
09:00 +16°C° 0 mm 6 mps 762 mmHg 56%
10:00 +17°C° 0 mm 6 mps 762 mmHg 52%
11:00 +20°C° 0 mm 6 mps 762 mmHg 48%
12:00 +20°C° 0 mm 6 mps 762 mmHg 45%
13:00 +21°C° 0 mm 6 mps 762 mmHg 43%
14:00 +22°C° 0 mm 6 mps 762 mmHg 40%
15:00 +22°C° 0 mm 5 mps 762 mmHg 43%
16:00 +21°C° 0 mm 5 mps 762 mmHg 45%
17:00 +21°C° 0 mm 5 mps 762 mmHg 47%
18:00 +19°C° 0 mm 4 mps 762 mmHg 52%
19:00 +18°C° 0 mm 4 mps 762 mmHg 56%
20:00 +15°C° 0 mm 4 mps 762 mmHg 61%
21:00 +14°C° 0 mm 3 mps 762 mmHg 66%
22:00 +13°C° 0 mm 3 mps 762 mmHg 71%
23:00 +11°C° 0 mm 3 mps 762 mmHg 76%

12 May, Wednesday

Time Temperature Precipitation Wind Pressure Humidity
00:00 +11°C° 0 mm 3 mps 762 mmHg 78%
01:00 +11°C° 0 mm 3 mps 762 mmHg 80%
02:00 +10°C° 0 mm 3 mps 763 mmHg 82%
03:00 +10°C° 0 mm 3 mps 763 mmHg 83%
04:00 +10°C° 0 mm 3 mps 763 mmHg 83%
05:00 +10°C° 0 mm 3 mps 762 mmHg 84%
06:00 +12°C° 0 mm 3 mps 762 mmHg 75%
07:00 +14°C° 0 mm 3 mps 762 mmHg 66%
08:00 +17°C° 0 mm 4 mps 762 mmHg 57%
09:00 +18°C° 0 mm 4 mps 762 mmHg 51%
10:00 +20°C° 0 mm 4 mps 762 mmHg 46%
11:00 +21°C° 0 mm 4 mps 762 mmHg 40%
12:00 +22°C° 0 mm 4 mps 762 mmHg 39%
13:00 +23°C° 0 mm 4 mps 761 mmHg 39%
14:00 +25°C° 0 mm 4 mps 761 mmHg 38%
15:00 +25°C° 0 mm 4 mps 761 mmHg 41%
16:00 +24°C° 0 mm 3 mps 761 mmHg 45%
17:00 +24°C° 0 mm 3 mps 760 mmHg 48%
18:00 +21°C° 0 mm 3 mps 760 mmHg 57%
19:00 +20°C° 0 mm 2 mps 760 mmHg 66%
20:00 +18°C° 0 mm 2 mps 760 mmHg 76%
21:00 +17°C° 0 mm 2 mps 760 mmHg 79%
22:00 +16°C° 0 mm 2 mps 760 mmHg 83%
23:00 +15°C° 0 mm 2 mps 761 mmHg 87%
Show more

We Need Your Consent

Meteoprog and our Service Providers may store and access personal data such as cookies, device identifiers or other similar technologies on your device and process such data to personalise content and ads, as well as provide social media features and to analyse the traffic.

  • Store and/or access information on your device

    Cookies, device identifiers or other information can be stored or accessed on your device for the purposes indicated above.

  • Personalised ads and content, ad and content measurement, audience insights, and products development

    Ads and content can be personalised based on a profile. More data can be added to better personalise ads and content. Ad and content performance can be measured. Insights about the audience who saw the ads and content can be derived. Such data can be used to develop or improve user’s experience, systems and software.

By clicking ‘I Agree’ you will allow the use of indicated cookies, device identifiers, web beacons or other similar technologies. Your settings can be changed in the browser on your device.

For certain purposes, legitimate interests may be relied on, rather than consent. You can read more about this in our Privacy and Cookie Policy.